When you browse on this site, cookies collect data to enhance your experience and personalize the content and advertising you see.
Visit our Privacy Policy to learn more. By continuing to use the site, you agree to this use of cookies and data.
  • In Hungary
  • List of Countries
  • For 7 days
  • Water Temperature
  • Satellite Maps
  • Weather Map
  • News
  • Weather Widgets
  • user-avatar
    Login

    Hourly Weather Ipora

    Today, 20 November, Tuesday

    Time Temperature Precipitation Wind Pressure Humidity
    00:00 +21°C° 0 mm 4 mps 729 mmHg 79%
    01:00 +21°C° 0 mm 4 mps 729 mmHg 77%
    02:00 +20°C° 0 mm 3 mps 729 mmHg 75%
    03:00 +20°C° 0 mm 3 mps 729 mmHg 77%
    04:00 +19°C° 0 mm 3 mps 729 mmHg 79%
    05:00 +19°C° 0 mm 2 mps 730 mmHg 80%
    06:00 +20°C° 0 mm 3 mps 730 mmHg 75%
    07:00 +22°C° 0 mm 3 mps 731 mmHg 70%
    08:00 +25°C° 0 mm 3 mps 731 mmHg 64%
    09:00 +26°C° 0 mm 3 mps 731 mmHg 59%
    10:00 +28°C° 0 mm 3 mps 731 mmHg 54%
    11:00 +30°C° 0 mm 3 mps 731 mmHg 50%
    12:00 +31°C° 0 mm 3 mps 730 mmHg 47%
    13:00 +31°C° 0 mm 3 mps 729 mmHg 45%
    14:00 +32°C° 0 mm 2 mps 728 mmHg 43%
    15:00 +32°C° 0 mm 2 mps 728 mmHg 46%
    16:00 +31°C° 0 mm 2 mps 728 mmHg 49%
    17:00 +31°C° 0 mm 1 mps 727 mmHg 52%
    18:00 +29°C° 0 mm 1 mps 728 mmHg 54%
    19:00 +27°C° 0 mm 1 mps 728 mmHg 56%
    20:00 +25°C° 0 mm 1 mps 728 mmHg 58%
    21:00 +25°C° 0 mm 2 mps 729 mmHg 62%
    22:00 +24°C° 0 mm 3 mps 729 mmHg 66%
    23:00 +23°C° 0 mm 4 mps 730 mmHg 69%

    Tomorrow, 21 November, Wednesday

    Time Temperature Precipitation Wind Pressure Humidity
    00:00 +22°C° 0 mm 3 mps 730 mmHg 72%
    01:00 +21°C° 0 mm 3 mps 730 mmHg 74%
    02:00 +21°C° 0 mm 3 mps 729 mmHg 76%
    03:00 +20°C° 0 mm 3 mps 730 mmHg 76%
    04:00 +19°C° 0 mm 3 mps 730 mmHg 77%
    05:00 +19°C° 0 mm 3 mps 730 mmHg 77%
    06:00 +20°C° 0 mm 3 mps 730 mmHg 73%
    07:00 +22°C° 0 mm 4 mps 731 mmHg 68%
    08:00 +23°C° 0 mm 4 mps 731 mmHg 64%
    09:00 +26°C° 0 mm 4 mps 731 mmHg 60%
    10:00 +28°C° 0 mm 4 mps 731 mmHg 56%
    11:00 +30°C° 0 mm 3 mps 731 mmHg 52%
    12:00 +31°C° 0 mm 3 mps 730 mmHg 49%
    13:00 +33°C° 0 mm 3 mps 729 mmHg 46%
    14:00 +33°C° 0 mm 3 mps 728 mmHg 42%
    15:00 +32°C° 0 mm 2 mps 728 mmHg 46%
    16:00 +31°C° 0 mm 2 mps 727 mmHg 51%
    17:00 +31°C° 0 mm 2 mps 727 mmHg 55%
    18:00 +29°C° 0 mm 2 mps 727 mmHg 59%
    19:00 +28°C° 0 mm 2 mps 727 mmHg 64%
    20:00 +26°C° 0 mm 2 mps 728 mmHg 69%
    21:00 +26°C° 0 mm 3 mps 728 mmHg 71%
    22:00 +25°C° 0 mm 3 mps 728 mmHg 73%
    23:00 +25°C° 0 mm 4 mps 728 mmHg 75%

    Day after tomorrow, 22 November, Thursday

    Time Temperature Precipitation Wind Pressure Humidity
    00:00 +25°C° 0 mm 4 mps 728 mmHg 76%
    01:00 +23°C° 0 mm 4 mps 728 mmHg 76%
    02:00 +23°C° 0 mm 4 mps 727 mmHg 77%
    03:00 +22°C° 0 mm 4 mps 727 mmHg 78%
    04:00 +22°C° 0 mm 4 mps 727 mmHg 79%
    05:00 +22°C° 0 mm 4 mps 728 mmHg 80%
    06:00 +23°C° 0 mm 5 mps 728 mmHg 78%
    07:00 +25°C° 0 mm 5 mps 728 mmHg 75%
    08:00 +27°C° 0 mm 6 mps 729 mmHg 72%
    09:00 +27°C° 0 mm 5 mps 729 mmHg 72%
    10:00 +28°C° 0 mm 5 mps 728 mmHg 71%
    11:00 +28°C° 0 mm 5 mps 728 mmHg 70%
    12:00 +29°C° 0.1 mm 5 mps 728 mmHg 68%
    13:00 +30°C° 0.1 mm 4 mps 727 mmHg 65%
    14:00 +32°C° 0.1 mm 4 mps 726 mmHg 63%
    15:00 +30°C° 0 mm 4 mps 726 mmHg 64%
    16:00 +30°C° 0 mm 3 mps 726 mmHg 66%
    17:00 +30°C° 0 mm 3 mps 726 mmHg 68%
    18:00 +29°C° 0 mm 3 mps 726 mmHg 72%
    19:00 +28°C° 0 mm 3 mps 726 mmHg 76%
    20:00 +26°C° 0 mm 3 mps 727 mmHg 80%
    21:00 +26°C° 0 mm 3 mps 727 mmHg 80%
    22:00 +26°C° 0 mm 3 mps 727 mmHg 81%
    23:00 +26°C° 0 mm 4 mps 727 mmHg 82%

    23 November, Friday

    Time Temperature Precipitation Wind Pressure Humidity
    00:00 +25°C° 0 mm 3 mps 726 mmHg 83%
    01:00 +25°C° 0 mm 3 mps 726 mmHg 83%
    02:00 +25°C° 0 mm 3 mps 726 mmHg 84%
    03:00 +24°C° 0.1 mm 3 mps 726 mmHg 85%
    04:00 +23°C° 0.1 mm 4 mps 726 mmHg 87%
    05:00 +23°C° 0.1 mm 4 mps 726 mmHg 88%
    06:00 +25°C° 0.3 mm 4 mps 727 mmHg 84%
    07:00 +26°C° 0.3 mm 4 mps 727 mmHg 81%
    08:00 +27°C° 0.3 mm 4 mps 728 mmHg 78%
    09:00 +29°C° 0.4 mm 4 mps 728 mmHg 73%
    10:00 +30°C° 0.4 mm 4 mps 727 mmHg 68%
    11:00 +31°C° 0.4 mm 3 mps 727 mmHg 63%
    12:00 +31°C° 0.3 mm 3 mps 726 mmHg 62%
    13:00 +33°C° 0.3 mm 3 mps 726 mmHg 61%
    14:00 +33°C° 0.3 mm 3 mps 725 mmHg 59%
    15:00 +31°C° 0.5 mm 2 mps 725 mmHg 64%
    16:00 +31°C° 0.5 mm 2 mps 725 mmHg 69%
    17:00 +30°C° 0.5 mm 1 mps 725 mmHg 74%
    18:00 +29°C° 1.4 mm 1 mps 725 mmHg 78%
    19:00 +27°C° 1.4 mm 1 mps 725 mmHg 83%
    20:00 +26°C° 1.4 mm 1 mps 725 mmHg 87%
    21:00 +26°C° 2.1 mm 1 mps 726 mmHg 88%
    22:00 +26°C° 2.1 mm 2 mps 726 mmHg 89%
    23:00 +25°C° 2.1 mm 2 mps 726 mmHg 90%

    24 November, Saturday

    Time Temperature Precipitation Wind Pressure Humidity
    00:00 +25°C° 2.2 mm 2 mps 725 mmHg 90%
    01:00 +25°C° 2.2 mm 3 mps 725 mmHg 90%
    02:00 +24°C° 2.2 mm 3 mps 725 mmHg 90%
    03:00 +24°C° 2.5 mm 3 mps 725 mmHg 90%
    04:00 +24°C° 2.5 mm 3 mps 725 mmHg 91%
    05:00 +24°C° 2.5 mm 3 mps 725 mmHg 91%
    06:00 +24°C° 2.5 mm 3 mps 725 mmHg 91%
    07:00 +24°C° 2.5 mm 3 mps 725 mmHg 92%
    08:00 +24°C° 2.5 mm 3 mps 725 mmHg 92%
    09:00 +25°C° 5.2 mm 3 mps 725 mmHg 92%
    10:00 +25°C° 5.2 mm 3 mps 725 mmHg 92%
    11:00 +25°C° 5.2 mm 3 mps 725 mmHg 93%
    12:00 +25°C° 6.6 mm 3 mps 724 mmHg 93%
    13:00 +25°C° 6.6 mm 3 mps 724 mmHg 92%
    14:00 +25°C° 6.6 mm 2 mps 724 mmHg 92%
    15:00 +25°C° 2.7 mm 2 mps 724 mmHg 93%
    16:00 +25°C° 2.7 mm 1 mps 724 mmHg 93%
    17:00 +25°C° 2.7 mm 1 mps 724 mmHg 94%
    18:00 +24°C° 0.9 mm 1 mps 724 mmHg 94%
    19:00 +24°C° 0.9 mm 1 mps 724 mmHg 95%
    20:00 +24°C° 0.9 mm 2 mps 725 mmHg 95%
    21:00 +24°C° 0.2 mm 2 mps 724 mmHg 96%
    22:00 +23°C° 0.2 mm 2 mps 724 mmHg 96%
    23:00 +23°C° 0.2 mm 2 mps 724 mmHg 96%

    25 November, Sunday

    Time Temperature Precipitation Wind Pressure Humidity
    00:00 +23°C° 0.1 mm 1 mps 724 mmHg 97%
    01:00 +23°C° 0.1 mm 1 mps 724 mmHg 97%
    02:00 +23°C° 0.1 mm 1 mps 723 mmHg 97%
    03:00 +23°C° 0.1 mm 1 mps 723 mmHg 97%
    04:00 +23°C° 0.1 mm 1 mps 723 mmHg 97%
    05:00 +23°C° 0.1 mm 1 mps 724 mmHg 97%
    06:00 +24°C° 0.2 mm 1 mps 724 mmHg 94%
    07:00 +25°C° 0.2 mm 2 mps 724 mmHg 90%
    08:00 +26°C° 0.2 mm 2 mps 725 mmHg 87%
    09:00 +27°C° 0.6 mm 2 mps 724 mmHg 82%
    10:00 +28°C° 0.6 mm 2 mps 724 mmHg 77%
    11:00 +30°C° 0.6 mm 2 mps 724 mmHg 73%
    12:00 +30°C° 0.8 mm 2 mps 723 mmHg 71%
    13:00 +30°C° 0.8 mm 2 mps 723 mmHg 70%
    14:00 +31°C° 0.8 mm 2 mps 722 mmHg 69%
    15:00 +30°C° 0.6 mm 2 mps 722 mmHg 72%
    16:00 +30°C° 0.6 mm 2 mps 722 mmHg 76%
    17:00 +29°C° 0.6 mm 2 mps 722 mmHg 79%
    18:00 +27°C° 0.1 mm 3 mps 723 mmHg 82%
    19:00 +26°C° 0.1 mm 3 mps 723 mmHg 84%
    20:00 +24°C° 0.1 mm 3 mps 724 mmHg 87%
    21:00 +24°C° 0 mm 3 mps 724 mmHg 87%
    22:00 +22°C° 0 mm 3 mps 724 mmHg 88%
    23:00 +21°C° 0 mm 3 mps 724 mmHg 88%
    Show more